International Skating Union - Official Site

ISU World Cup Nagano
November 18-20, 2016

Draw | Lap Times | Index | World Cup

Referee: Erik  ØSMUNDSET  (NOR)
Starter: Takeshi  MUKAI  (JPN)
StartTime: EndTime: Air Temp: Ice Temp: Humidity:
11:40 12:10 15℃ -7℃ 44%
Result 3000m Ladies Division B
Rankings as of Nov 20 2016 5:52PM
Rank: No.: Name: Nation: Time: Behind: Points:
1 288 Natalya  Voronina RUS RUS 4:07.12200m - 19.92 - (19.9)
600m - 50.99 - (31.0)
1000m - 1:22.52 - (31.5)
1400m - 1:54.36 - (31.8)
1800m - 2:26.78 - (32.4)
2200m - 2:59.65 - (32.8)
2600m - 3:33.02 - (33.3)
3000m - 4:07.12 - (34.0)
32
2 259 Carlijn  Achtereekte NED NED 4:07.25200m - 20.22 - (20.2)
600m - 51.17 - (30.9)
1000m - 1:22.55 - (31.3)
1400m - 1:54.76 - (32.2)
1800m - 2:27.25 - (32.4)
2200m - 3:00.30 - (33.0)
2600m - 3:33.67 - (33.3)
3000m - 4:07.25 - (33.5)
0.13 27
3 292 Mia  Manganello USA USA 4:10.00200m - 20.54 - (20.5)
600m - 51.80 - (31.2)
1000m - 1:23.29 - (31.4)
1400m - 1:55.20 - (31.9)
1800m - 2:27.69 - (32.4)
2200m - 3:00.90 - (33.2)
2600m - 3:34.49 - (33.5)
3000m - 4:10.00 - (35.5)
2.88 23
4 202 Jelena  Peeters BEL BEL 4:10.70200m - 20.50 - (20.5)
600m - 51.81 - (31.3)
1000m - 1:23.56 - (31.7)
1400m - 1:56.30 - (32.7)
1800m - 2:29.68 - (33.3)
2200m - 3:02.95 - (33.2)
2600m - 3:36.71 - (33.7)
3000m - 4:10.70 - (33.9)
3.58 19
5 245 Ayano  Sato JPN JPN 4:11.04200m - 20.04 - (20.0)
600m - 51.40 - (31.3)
1000m - 1:23.60 - (32.2)
1400m - 1:55.93 - (32.3)
1800m - 2:29.28 - (33.3)
2200m - 3:02.87 - (33.5)
2600m - 3:37.03 - (34.1)
3000m - 4:11.04 - (34.0)
3.92 15
6 211 Brianne  Tutt CAN CAN 4:11.28200m - 20.41 - (20.4)
600m - 52.59 - (32.1)
1000m - 1:24.76 - (32.1)
1400m - 1:57.14 - (32.3)
1800m - 2:29.48 - (32.3)
2200m - 3:02.56 - (33.0)
2600m - 3:36.40 - (33.8)
3000m - 4:11.28 - (34.8)
4.16 11
7 274 Ida  Njåtun NOR NOR 4:12.22200m - 19.98 - (19.9)
600m - 51.71 - (31.7)
1000m - 1:23.97 - (32.2)
1400m - 1:56.60 - (32.6)
1800m - 2:29.46 - (32.8)
2200m - 3:03.14 - (33.6)
2600m - 3:37.21 - (34.0)
3000m - 4:12.22 - (35.0)
5.10 9
8 279 Luiza  Zlotkowska POL POL 4:12.80200m - 20.39 - (20.3)
600m - 52.18 - (31.7)
1000m - 1:24.61 - (32.4)
1400m - 1:57.01 - (32.4)
1800m - 2:29.80 - (32.7)
2200m - 3:03.06 - (33.2)
2600m - 3:37.58 - (34.5)
3000m - 4:12.80 - (35.2)
5.68 7
9 275 Katarzyna  Bachleda-Curus POL POL 4:13.76200m - 20.73 - (20.7)
600m - 52.27 - (31.5)
1000m - 1:24.36 - (32.0)
1400m - 1:56.97 - (32.6)
1800m - 2:30.41 - (33.4)
2200m - 3:04.01 - (33.6)
2600m - 3:38.43 - (34.4)
3000m - 4:13.76 - (35.3)
6.64 6
10 230 Nikola  Zdráhalová CZE CZE 4:14.32200m - 20.11 - (20.1)
600m - 52.18 - (32.0)
1000m - 1:24.64 - (32.4)
1400m - 1:57.89 - (33.2)
1800m - 2:31.43 - (33.5)
2200m - 3:05.65 - (34.2)
2600m - 3:39.91 - (34.2)
3000m - 4:14.32 - (34.4)
7.20 5
11 246 Maki  Tabata JPN JPN 4:15.17200m - 20.56 - (20.5)
600m - 51.91 - (31.3)
1000m - 1:23.98 - (32.0)
1400m - 1:56.80 - (32.8)
1800m - 2:30.12 - (33.3)
2200m - 3:04.21 - (34.0)
2600m - 3:39.22 - (35.0)
3000m - 4:15.17 - (35.9)
8.05 4
12 214 Mei  Han CHN CHN 4:16.49200m - 20.64 - (20.6)
600m - 52.25 - (31.6)
1000m - 1:24.57 - (32.3)
1400m - 1:57.49 - (32.9)
1800m - 2:31.41 - (33.9)
2200m - 3:05.68 - (34.2)
2600m - 3:40.70 - (35.0)
3000m - 4:16.49 - (35.8)
9.37 3
13 277 Magdalena  Czyszczon POL POL 4:17.34200m - 21.44 - (21.4)
600m - 53.25 - (31.8)
1000m - 1:26.21 - (32.9)
1400m - 1:59.58 - (33.3)
1800m - 2:33.63 - (34.0)
2200m - 3:07.82 - (34.1)
2600m - 3:42.61 - (34.7)
3000m - 4:17.34 - (34.7)
10.22 2
14 285 Elizaveta  Kazelina RUS RUS 4:17.82200m - 20.30 - (20.3)
600m - 51.55 - (31.2)
1000m - 1:24.38 - (32.8)
1400m - 1:57.76 - (33.3)
1800m - 2:32.13 - (34.3)
2200m - 3:07.17 - (35.0)
2600m - 3:42.97 - (35.8)
3000m - 4:17.82 - (34.8)
10.70 1
15 278 Katarzyna  Wozniak POL POL 4:17.89200m - 20.84 - (20.8)
600m - 52.91 - (32.0)
1000m - 1:25.25 - (32.3)
1400m - 1:58.04 - (32.7)
1800m - 2:31.22 - (33.1)
2200m - 3:05.52 - (34.3)
2600m - 3:41.16 - (35.6)
3000m - 4:17.89 - (36.7)
10.77 0
16 257 Ji-Woo  Park KOR KOR 4:18.88200m - 20.49 - (20.4)
600m - 52.54 - (32.0)
1000m - 1:25.19 - (32.6)
1400m - 1:59.58 - (34.3)
1800m - 2:34.31 - (34.7)
2200m - 3:08.96 - (34.6)
2600m - 3:43.68 - (34.7)
3000m - 4:18.88 - (35.2)
11.76 0
17 219 Jing  Liu CHN CHN 4:18.95200m - 20.86 - (20.8)
600m - 52.97 - (32.1)
1000m - 1:25.94 - (32.9)
1400m - 1:59.60 - (33.6)
1800m - 2:33.75 - (34.1)
2200m - 3:08.32 - (34.5)
2600m - 3:43.68 - (35.3)
3000m - 4:18.95 - (35.2)
11.83 0
18 215 Jiachen  Hao CHN CHN 4:18.98200m - 20.41 - (20.4)
600m - 53.53 - (33.1)
1000m - 1:26.70 - (33.1)
1400m - 2:00.28 - (33.5)
1800m - 2:34.06 - (33.7)
2200m - 3:08.55 - (34.4)
2600m - 3:43.44 - (34.8)
3000m - 4:18.98 - (35.5)
11.86 0
19 231 Elena  Møller-Rigas DEN DEN 4:19.51200m - 20.97 - (20.9)
600m - 53.00 - (32.0)
1000m - 1:25.97 - (32.9)
1400m - 1:59.16 - (33.1)
1800m - 2:33.51 - (34.3)
2200m - 3:08.15 - (34.6)
2600m - 3:43.54 - (35.3)
3000m - 4:19.51 - (35.9)
12.39 0
20 216 Dan  Li CHN CHN 4:23.05200m - 20.68 - (20.6)
600m - 52.31 - (31.6)
1000m - 1:24.65 - (32.3)
1400m - 1:58.49 - (33.8)
1800m - 2:33.12 - (34.6)
2200m - 3:09.03 - (35.9)
2600m - 3:45.72 - (36.6)
3000m - 4:23.05 - (37.3)
15.93 0